Regional Weather Roundup
Issued by NWS

Home | Current Version | Previous Version | Graphics & Text | Print | Product List | Glossary On
Versions: 1 2 3 4 5 6 7 8 9 10 11 12 13 14 15 16 17 18 19 20 21 22 23 24 25 26 27 28 29 30 31 32 33 34 35 36 37 38 39 40 41 42 43 44 45 46 47 48 49 50
000
ASUS43 KMKX 140600
RWRWI

WISCONSIN REGIONAL WEATHER ROUNDUP
NATIONAL WEATHER SERVICE MILWAUKEE/SULLIVAN WI
1200 AM CST SUN FEB 14 2016

NOTE: "FAIR" INDICATES FEW OR NO CLOUDS BELOW 12,000 FEET WITH NO
SIGNIFICANT WEATHER AND/OR OBSTRUCTIONS TO VISIBILITY.

WIZ001-002-006>008-014>016-023>028-140700-
NORTHWEST WISCONSIN

CITY           SKY/WX    TMP DP  RH WIND       PRES   REMARKS
SUPERIOR ARPT  CLOUDY    -8 -13  78 CALM      30.36F
ASHLAND        CLOUDY   -15 -19  82 S5        30.36F WCI -27
6HR MIN TEMP: -16; 6HR MAX TEMP:   2;

HAYWARD        CLOUDY   -16 -21  78 CALM      30.32F
6HR MIN TEMP: -17; 6HR MAX TEMP:   4;

SIREN          CLOUDY   -10 -17  69 CALM      30.32F
CUMBERLAND     CLOUDY    -4 -15  59 SE5       30.30F WCI -15
RICE LAKE      CLOUDY    -3 -13  61 E6        30.35S WCI -15
CHETEK         CLOUDY    -8 -15  70 SE5       30.35S WCI -19
LADYSMITH      CLOUDY   -11 -18  73 CALM      30.36F
EAU CLAIRE     CLOUDY    -8 -14  74 CALM      30.35F
6HR MIN TEMP:  -9; 6HR MAX TEMP:   4;

MENOMONIE      CLOUDY    -1 -13  56 E6        30.36F WCI -12
NEW RICHMOND   CLOUDY     0 -12  56 SE6       30.31F WCI -11
OSCEOLA        CLOUDY     2  -9  58 E7        30.34F WCI -10
$$

WIZ003>005-009-010-017-018-140700-
NORTH CENTRAL WISCONSIN

CITY           SKY/WX    TMP DP  RH WIND       PRES   REMARKS
MANITOWISH WTR PTCLDY   -18 -23  79 CALM      30.29F
ARBOR VITAE    CLOUDY   -11 -17  75 CALM      30.30F
WOODRUFF       CLOUDY   -11 -17  75 CALM      30.30F
RHINELANDER    CLOUDY   -14 -20  74 CALM      30.31S
6HR MIN TEMP: -15; 6HR MAX TEMP:   6;

EAGLE RIVER    CLOUDY   -15 -21  74 CALM      30.31S
LAND O LAKES   CLOUDY   -20 -26  74 CALM      30.32S
PHILLIPS       CLOUDY   -16 -21  78 CALM      30.31F
TOMAHAWK       CLOUDY   -19 -24  77 CALM      30.34S
MEDFORD        CLOUDY   -14 -19  79 SE5       30.31F WCI -26
MERRILL        CLOUDY   -14 -19  79 CALM      30.37S
$$

WIZ029-030-035-036-043>047-140700-
CENTRAL WISCONSIN

CITY           SKY/WX    TMP DP  RH WIND       PRES   REMARKS
WAUSAU         CLOUDY    -8 -13  78 SE3       30.37R
6HR MIN TEMP:  -8; 6HR MAX TEMP:   5;

MOSINEE        CLOUDY    -4 -11  71 CALM      30.38S
MARSHFIELD     CLOUDY    -5 -14  65 CALM      30.34F
6HR MIN TEMP:  -5; 6HR MAX TEMP:   5;

STEVENS POINT  PTCLDY   -12 -17  79 CALM      30.40S
WAUPACA        CLOUDY    -8 -14  74 CALM      30.43S
WAUTOMA        NOT AVBL
WISC RAPIDS    CLOUDY    -8 -15  71 CALM      30.40F
6HR MIN TEMP:  -9; 6HR MAX TEMP:   5;

CAMP DOUGLAS   PTCLDY    -9 -12  86 SE3       30.39F
6HR MIN TEMP:  -9; 6HR MAX TEMP:   4;

$$

WIZ011>013-019>022-031-037>040-048>050-140700-
NORTHEAST WISCONSIN

CITY           SKY/WX    TMP DP  RH WIND       PRES   REMARKS
ANTIGO         CLOUDY   -12 -17  78 CALM      30.35R
SHAWANO        PTCLDY    -2  -8  74 CALM      30.43S
OCONTO         CLOUDY    -8 -12  82 CALM      30.44S
STURGEON BAY   CLOUDY     1  -9  60 SW5       30.44S WCI  -8
6HR MIN TEMP:   1; 6HR MAX TEMP:   7;

GREEN BAY      CLOUDY    -7 -13  75 CALM      30.45R
6HR MIN TEMP:  -7; 6HR MAX TEMP:   7;

MANITOWOC      NOT AVBL
APPLETON       CLOUDY     0 -13  55 CALM      30.40S
CLINTONVILLE   PTCLDY    -6 -13  71 CALM      30.43S
OSHKOSH        CLOUDY    -4 -12  68 SW5       30.43F WCI -15
6HR MIN TEMP:  -6; 6HR MAX TEMP:   7;

$$

WIZ032>034-041-042-053>061-140700-
SOUTHWEST WISCONSIN

CITY           SKY/WX    TMP DP  RH WIND       PRES   REMARKS
LA CROSSE      CLOUDY     3  -7  63 SE5       30.40F WCI  -6
6HR MIN TEMP:   0; 6HR MAX TEMP:   7;

SPARTA         CLOUDY   -10 -14  82 CALM      30.40F
VIROQUA        CLOUDY     4  -8  58 SE7       30.34F WCI  -8
BOSCOBEL       CLOUDY     0  -6  76 CALM      30.42F HAZE
6HR MIN TEMP:  -1; 6HR MAX TEMP:   9;

PRAIRIE DU CHI CLOUDY     5  -5  61 E3        30.41F
PLATTEVILLE    CLOUDY     8  -2  62 E9        30.38F WCI  -5
$$

WIZ056-057-062-063-064-067-068-140700-
SOUTH CENTRAL WISCONSIN

CITY           SKY/WX    TMP DP  RH WIND       PRES   REMARKS
REEDSBURG      CLOUDY    -5 -10  81 CALM      30.40F
BARABOO/DELLS  CLOUDY    -1 -10  64 S3        30.39F
LONE ROCK      NOT AVBL
MINERAL POINT  CLOUDY     7  -8  51 E5        30.37F WCI  -2
MADISON        PTCLDY     4  -6  63 E8        30.41F WCI  -9
6HR MIN TEMP:   2; 6HR MAX TEMP:   7;

MIDDLETON      PTCLDY     1  -4  79 CALM      30.42F
WATERTOWN      CLOUDY     1  -4  80 CALM      30.44S
MONROE         CLOUDY     9   0  66 E6        30.39S WCI  -1
JANESVILLE     CLOUDY    10   0  61 E5        30.43F WCI   2
$$

WIZ051-052-058>065-066-070>072-140700-
SOUTHEAST WISCONSIN

CITY           SKY/WX    TMP DP  RH WIND       PRES   REMARKS
MILWAUKEE      CLOUDY     7  -5  57 W3        30.46F
6HR MIN TEMP:   7; 6HR MAX TEMP:  10;

WAUKESHA       CLOUDY     0  -6  78 CALM      30.45F
MILWAUKEE/TIMM PTCLDY     3  -4  72 CALM      30.47S
RACINE         CLOUDY     6  -6  57 W5        30.48F WCI  -3
6HR MIN TEMP:   5; 6HR MAX TEMP:  10;

BURLINGTON     CLOUDY     0  -4  82 CALM      30.45F
KENOSHA        PTCLDY     4  -4  69 CALM      30.45F
6HR MIN TEMP:   4; 6HR MAX TEMP:  11;

FOND DU LAC    PTCLDY    -4 -11  72 S6        30.44S WCI -16
6HR MIN TEMP:  -6; 6HR MAX TEMP:   6;

SHEBOYGAN      CLOUDY    -1  -8  72 CALM      30.45S
6HR MIN TEMP:  -2; 6HR MAX TEMP:   5;

WEST BEND      CLOUDY     0  -6  78 CALM      30.44S
JUNEAU         CLOUDY     0  -6  74 SE6       30.44S WCI -11
$$

LSZ147-162-140700-
LAKE SUPERIOR

STATION/POSITION TIME  TEMP    WIND        PRES    WAVE
                       AIR SEA DIR/SP/G            HT/PER
                 (UTC) (F)     (DEG/KT/KT) (MB)    (FT/S)
DEVILS ISLAND    0500    9     190/  7/  9 1029.9F
SAXON HARBOR     0440  -12                 1028.4F
$$

LMZ867-665-643>646-140700-
LAKE MICHIGAN

STATION/POSITION TIME  TEMP    WIND        PRES    WAVE
                       AIR SEA DIR/SP/G            HT/PER
                 (UTC) (F)     (DEG/KT/KT) (MB)    (FT/S)
CHAMBERS ISLAND  0500    1     180/  3/  3 1030.1F
SISTER BAY       0520    4        CALM       N/A
ALGOMA LAKESHORE 0511             CALM       N/A
KEWAUNEE LAKESHO 0500    3     290/  5/  6 1029.9F
SHEBOYGAN LAKESH 0500    7     270/  6/  7 1033.4F
PORT WASHINGTON  0500    5     280/  4/  6 1032.8S
MILWAUKEE LAKESH 0510    9     300/  4/  5   N/A
KENOSHA   LAKESH 0500    9     290/  4/  6 1031.5F
$$

TC  - TEMPERATURE IN CELSIUS
VSB - VISIBILITY IN STATUTE MILES
WCI - WIND CHILL INDEX
HX  - HEAT INDEX




USA.gov is the U.S. government's official web portal to all federal, state and local government web resources and services.